GFSMW_925_spd_102.txt.gz
Wind_Speed
22 21 22 26 23 22 15 19 23 16 13 11 14 10 8 10 11 6 9 7 6 3 2 2 7 5 8 10 4 6 10 5 5 4 7 5 7 9 8 12 15 6 11
18 17 20 25 24 24 20 16 19 17 16 12 5 5 10 8 10 14 9 9 7 5 1 4 7 4 4 4 2 2 7 1 3 8 2 3 10 12 11 3 9 6 9
14 18 20 22 26 26 24 24 17 16 15 10 9 4 7 2 10 6 9 7 9 7 3 2 3 5 1 2 5 1 7 9 3 2 4 2 1 8 7 8 5 6 6
22 20 23 24 27 26 23 23 22 16 13 12 11 13 12 8 6 11 3 6 10 9 8 6 6 1 14 14 10 1 4 8 11 6 2 1 2 2 1 10 9 7 8
20 11 25 22 32 29 28 24 19 17 14 12 10 8 8 8 9 5 6 14 13 9 9 8 7 5 6 10 9 6 6 10 11 16 5 4 9 2 4 2 7 11 12
18 14 13 34 25 30 28 26 23 18 13 13 9 7 5 3 4 4 10 10 9 8 9 8 4 1 6 7 5 4 6 8 10 13 18 19 13 11 6 5 3 4 10
6 16 12 17 30 28 30 30 26 20 16 14 12 8 5 3 2 3 6 4 2 13 10 11 9 7 6 6 3 1 3 8 10 11 12 11 10 18 19 4 8 19 12
13 9 8 11 25 26 19 30 24 22 19 17 14 12 8 5 6 7 2 2 7 8 9 13 11 9 8 5 4 1 5 8 8 12 9 10 7 14 9 11 20 6 18
15 10 12 23 32 14 7 33 26 23 20 17 15 11 7 8 2 3 3 3 7 8 3 5 10 8 6 6 5 5 5 8 10 9 14 13 13 17 20 11 16 6 3
20 16 15 24 18 13 16 27 23 25 21 19 17 15 12 9 6 4 4 3 2 4 12 13 13 8 8 11 10 9 5 8 11 11 8 10 12 14 16 17 17 23 11
23 16 9 18 27 29 33 33 26 24 16 11 11 13 10 10 9 7 5 2 2 1 9 9 11 12 12 12 13 13 11 6 11 12 10 8 9 13 15 17 18 18 16
25 14 21 36 34 25 19 26 27 25 20 17 11 5 12 12 12 8 1 4 5 4 6 10 10 10 12 12 13 13 11 10 11 10 10 10 11 10 12 16 16 15 18
15 23 16 20 24 23 16 17 19 20 20 18 11 8 7 10 6 3 7 7 10 10 8 8 12 14 15 14 14 15 15 13 10 11 10 10 10 9 10 13 15 15 16
9 10 13 15 14 14 18 19 16 11 12 13 12 14 13 7 6 4 9 13 10 8 10 10 12 13 11 11 11 13 13 12 12 11 10 11 11 10 10 11 11 10 10
8 7 9 9 9 15 16 14 14 15 13 13 11 12 13 12 11 12 11 13 16 13 9 11 12 10 8 9 11 11 10 12 12 10 9 12 12 12 11 11 11 13 13
11 8 7 7 9 6 6 19 17 17 17 16 15 13 13 10 8 10 10 11 13 10 9 9 7 7 5 7 8 10 8 9 6 9 10 11 11 12 14 16 17 15 15
10 9 7 8 9 5 6 10 11 18 18 16 12 10 8 6 3 2 2 4 8 9 6 4 6 1 3 6 5 7 9 11 8 9 10 10 9 12 7 7 8 11 12
12 9 13 11 7 7 8 9 14 16 16 15 14 11 10 7 5 5 3 2 2 5 5 6 4 3 6 5 4 4 5 6 6 5 2 4 10 10 11 10 10 11 14
14 15 12 11 10 10 11 14 15 17 18 15 13 12 9 7 4 2 1 2 3 2 1 3 4 3 4 4 4 3 9 4 3 6 5 1 7 10 11 11 10 9 11
18 16 13 13 13 11 14 18 18 19 18 17 15 13 13 10 8 5 5 4 2 2 4 6 4 2 5 8 4 5 3 6 8 6 4 5 8 10 11 11 11 10 11
21 17 14 13 13 13 16 19 17 16 14 12 11 9 10 8 6 3 3 3 3 5 5 6 1 3 4 7 9 5 4 4 4 4 2 3 8 9 9 12 12 11 15
18 16 16 15 14 15 15 16 15 14 14 13 12 10 8 6 5 4 3 2 3 4 5 3 2 3 3 7 12 10 6 5 5 6 9 11 9 10 10 10 10 10 13
14 15 17 16 14 13 13 14 16 13 10 10 9 8 6 5 7 3 4 2 2 2 5 6 5 7 5 2 7 9 8 9 8 5 10 7 7 6 7 8 7 9 10
13 15 15 14 12 9 10 11 13 12 10 8 7 7 7 6 6 2 2 6 4 5 4 6 5 5 2 2 6 10 7 3 2 9 6 4 5 7 4 8 10 11 11
13 13 13 13 13 12 11 11 11 9 8 6 5 5 5 6 5 2 3 3 2 2 5 3 5 5 4 2 5 10 8 5 3 4 6 6 8 12 11 12 13 17 15
10 13 12 12 12 12 13 12 10 10 10 9 8 8 9 9 11 8 3 3 2 5 8 5 1 2 5 9 9 6 2 2 2 2 3 7 6 8 9 11 12 15 17

GFSMW_925_spd_105.txt.gz
Wind_Speed
19 27 32 34 29 25 25 23 25 19 14 14 9 10 11 11 8 10 8 6 6 2 1 2 2 3 4 7 7 10 15 5 5 6 3 8 9 13 12 10 12 10 8
14 23 31 28 29 25 28 25 24 22 16 10 5 6 6 4 10 9 8 6 4 2 3 5 4 2 6 5 6 9 15 7 5 4 3 2 4 10 13 16 13 12 10
13 19 28 28 30 27 31 28 23 20 19 13 8 9 8 6 9 8 7 6 5 4 3 1 3 1 1 3 4 9 11 14 13 7 1 1 3 3 7 7 10 9 10
7 16 27 30 32 33 30 27 24 18 15 16 13 12 14 8 9 9 8 7 7 6 3 1 2 3 3 3 5 9 11 13 18 13 6 3 4 2 3 3 7 6 3
3 14 18 29 31 34 34 32 25 19 18 17 12 10 10 8 9 9 10 13 8 5 6 3 3 4 4 1 6 7 11 10 14 16 12 5 15 29 17 3 10 13 24
3 6 17 26 30 31 32 32 28 23 19 17 13 12 12 15 11 8 8 4 7 8 8 8 8 7 6 4 1 7 6 8 10 13 13 11 4 15 10 3 2 8 13
2 7 10 9 30 30 29 31 31 25 21 18 16 15 12 10 8 8 11 7 7 9 8 7 7 8 3 6 2 8 5 6 9 11 11 12 11 7 10 5 3 5 6
6 3 21 19 16 24 31 29 30 28 23 20 19 14 10 10 7 5 6 9 9 7 9 11 9 7 6 3 5 6 4 6 8 4 8 10 11 12 8 3 2 3 4
7 6 7 17 17 4 29 30 31 27 24 22 20 17 15 10 9 10 6 7 9 10 10 13 13 10 11 10 8 5 5 6 10 8 7 7 5 6 8 6 0 2 3
13 9 9 18 28 6 17 30 27 27 27 23 21 19 16 12 9 10 9 6 5 7 12 11 10 10 10 9 9 6 5 6 8 8 5 11 8 11 13 14 13 9 3
21 9 11 18 23 28 21 24 24 24 26 26 24 19 15 14 12 11 9 6 3 2 8 9 8 9 10 9 11 13 11 10 9 9 9 10 9 9 11 11 11 10 13
18 13 18 21 24 21 26 18 24 22 27 20 27 23 20 17 14 12 12 10 8 5 4 4 5 9 7 10 11 11 11 7 11 11 10 10 9 11 9 9 9 9 9
9 11 14 19 30 31 25 30 29 25 27 24 19 19 18 13 9 10 11 13 10 8 6 4 6 7 10 13 13 14 14 13 12 10 11 10 9 9 8 11 11 9 9
16 16 11 16 23 20 32 29 25 27 22 18 16 13 12 13 12 9 5 7 6 4 9 8 8 7 7 10 13 13 12 12 12 9 10 10 8 9 9 9 9 9 11
10 10 12 13 14 23 20 25 23 18 17 14 11 9 11 11 9 7 9 9 9 8 6 7 4 3 5 12 12 9 5 9 10 8 9 8 5 6 10 10 10 10 12
9 7 5 10 10 12 19 23 23 19 15 15 14 11 10 9 7 6 8 8 10 9 7 8 5 4 4 6 6 5 6 6 5 5 9 7 8 7 9 11 10 11 10
11 6 7 8 12 13 11 12 20 18 13 14 13 12 9 8 7 6 6 5 4 3 3 5 3 1 4 6 3 3 4 6 5 4 5 5 8 10 9 5 3 2 3
10 9 10 10 10 10 12 13 16 17 16 13 13 12 16 15 12 9 7 7 9 8 10 8 4 2 2 3 5 5 2 3 3 4 3 2 3 6 6 4 3 2 2
13 16 15 13 10 11 14 18 21 21 22 20 19 17 15 12 10 9 7 6 6 9 9 9 7 4 6 4 3 4 8 6 8 7 5 5 5 7 7 7 6 5 3
16 16 15 14 14 13 13 16 18 19 19 16 16 14 15 14 11 9 10 8 8 10 15 12 5 3 4 6 3 3 5 7 8 4 3 4 7 8 8 9 10 10 11
18 17 14 14 14 13 15 18 16 17 14 13 13 13 13 10 9 8 7 7 8 10 9 7 4 4 5 6 5 3 4 5 4 2 3 5 7 8 10 9 8 8 11
15 14 14 14 15 16 17 18 17 14 12 12 11 11 10 10 8 7 7 8 10 12 10 6 3 2 3 6 10 11 4 3 2 1 3 6 5 4 5 7 8 7 8
18 16 15 14 11 10 12 16 15 13 12 11 11 10 9 9 8 8 8 6 6 5 4 3 2 9 4 2 8 8 5 3 2 3 6 3 2 3 6 10 4 8 12
19 18 15 12 11 10 10 14 14 12 10 9 8 7 7 7 6 5 4 4 6 4 6 3 3 11 9 3 4 8 8 4 4 4 5 9 10 8 14 13 15 16 15
20 18 16 13 11 11 10 12 12 11 9 8 7 7 6 6 6 5 4 5 5 3 3 4 4 8 6 1 4 8 11 8 4 7 11 9 8 10 12 14 15 15 16
21 19 18 17 13 11 13 13 12 11 11 9 8 7 7 10 8 6 4 2 3 4 6 4 3 1 1 4 8 8 6 4 1 4 5 9 12 15 16 17 17 19 18

GFSMW_925_spd_111.txt.gz
Wind_Speed
19 26 26 29 31 31 30 28 26 22 22 19 16 13 15 15 13 11 9 8 7 5 5 3 5 6 6 9 11 11 10 10 4 2 1 5 14 12 10 9 12 15 15
15 20 24 24 29 34 32 29 26 24 22 18 18 14 18 15 11 7 7 9 7 5 3 5 7 5 6 8 10 11 10 9 8 3 3 3 3 5 8 13 11 14 14
19 16 22 25 28 32 33 31 29 28 23 18 16 16 14 13 13 11 10 7 6 5 2 2 2 2 4 7 9 10 10 10 13 7 3 1 2 2 9 2 9 14 15
18 19 23 24 26 31 31 32 31 28 24 21 16 18 16 15 12 13 12 10 8 7 4 1 2 1 3 5 7 7 9 10 7 8 8 4 1 2 1 7 8 4 2
21 22 26 28 30 29 34 33 28 26 25 23 20 18 16 15 12 13 13 11 10 10 8 6 7 4 5 6 5 6 5 7 9 6 1 2 6 6 2 1 3 2 1
18 21 27 26 24 26 31 33 29 27 25 23 20 17 16 15 13 16 15 15 14 10 12 11 9 6 5 5 6 4 2 3 6 7 7 5 1 2 3 2 3 5 5
15 15 14 21 22 27 30 35 32 30 26 24 22 19 17 16 16 15 16 14 17 17 13 11 12 9 5 8 5 4 4 1 1 3 3 5 6 3 2 1 1 2 4
14 16 21 23 27 30 30 32 34 31 27 25 24 20 18 16 16 13 13 14 15 18 16 14 12 13 8 6 9 6 5 4 3 1 2 0 3 3 4 2 2 2 3
7 16 20 25 28 27 32 36 36 33 28 26 23 21 19 17 16 13 12 15 14 13 14 15 15 14 11 10 8 6 4 3 3 2 2 1 2 1 2 2 3 1 1
11 7 16 25 29 34 36 36 36 34 30 26 24 20 19 16 15 14 14 11 12 12 12 15 15 13 13 11 10 8 6 4 2 2 3 3 1 2 2 3 5 6 3
18 10 10 21 29 32 35 36 34 34 30 26 24 21 19 16 14 12 11 10 7 9 11 13 15 13 13 13 12 11 10 9 6 6 5 6 5 5 4 4 3 4 5
15 15 13 15 23 28 31 33 31 31 29 27 23 22 19 17 16 15 14 13 11 9 7 11 13 10 11 9 11 11 12 11 9 7 8 8 7 7 6 6 5 7 8
12 9 10 14 18 21 26 28 24 23 25 24 22 19 18 13 17 18 18 16 14 10 7 6 7 7 9 11 12 12 11 11 10 9 9 6 6 7 6 5 7 7 7
15 12 9 10 14 18 24 22 22 19 16 17 20 18 17 18 24 21 19 17 15 13 12 11 10 9 8 10 11 12 14 14 12 10 10 9 8 7 7 9 10 10 10
18 15 11 10 19 16 20 16 20 21 14 16 23 22 24 26 26 27 24 17 14 6 6 8 11 12 11 10 9 9 10 11 12 9 7 7 6 6 9 10 10 12 12
13 11 14 13 16 17 18 19 16 14 19 17 24 29 28 32 33 28 15 11 9 7 10 10 9 8 8 8 9 10 9 10 12 11 8 7 5 6 8 10 12 12 13
6 6 3 11 19 22 16 15 16 15 14 18 22 22 19 17 15 13 12 11 10 11 13 11 10 9 7 7 6 6 7 9 10 11 13 11 7 6 6 5 5 5 3
8 6 8 10 13 14 16 13 13 11 12 16 18 23 23 19 15 14 13 12 11 12 11 11 9 6 3 3 3 6 6 9 11 10 12 8 5 2 2 2 3 2 4
9 10 11 9 6 2 1 10 16 15 12 15 19 25 24 19 16 13 11 8 11 14 14 12 9 5 5 4 2 3 5 7 6 6 6 4 4 4 2 2 3 5 6
11 10 8 9 10 9 6 9 14 14 17 22 26 22 20 20 17 14 10 8 10 13 13 12 8 6 4 4 2 2 4 8 8 8 6 5 2 2 2 3 2 2 3
10 9 11 12 11 11 10 16 15 14 13 15 16 21 19 16 13 11 8 10 15 15 13 11 8 5 5 4 3 3 5 6 6 5 5 3 4 5 3 2 2 3 6
8 11 14 13 11 11 12 15 17 12 13 15 14 16 13 11 10 7 8 9 14 16 14 10 9 7 6 4 4 3 2 4 6 6 5 3 4 2 2 3 5 7 9
9 14 15 14 11 10 9 13 11 10 12 12 12 11 11 9 8 8 5 8 10 12 10 8 6 5 3 2 4 6 5 1 2 5 4 4 4 4 6 8 10 9 8
12 12 14 11 10 9 10 12 10 10 11 12 11 10 9 9 7 6 5 6 7 6 6 5 6 8 7 3 2 3 5 5 3 1 3 8 12 13 15 14 12 10 9
13 13 13 10 9 8 10 8 7 6 8 8 8 7 6 6 6 6 5 5 5 5 5 4 5 10 11 6 4 4 6 5 0 11 15 16 15 16 15 14 13 11 10
15 12 13 13 11 7 7 7 7 6 5 5 5 4 4 4 4 4 5 4 3 3 2 2 2 5 7 8 6 7 6 3 7 11 12 14 15 14 13 13 13 12 12

GFSMW_925_spd_114.txt.gz
Wind_Speed
18 21 23 24 27 25 24 24 22 24 24 19 18 16 15 11 9 7 8 6 7 4 3 4 3 4 5 8 7 8 8 7 2 1 3 1 3 7 8 9 8 8 10
10 17 22 22 28 29 28 25 25 25 22 21 18 18 17 14 11 8 6 6 7 5 4 4 7 5 5 6 8 8 5 7 4 3 3 3 2 4 7 8 10 11 10
14 14 20 24 25 30 32 30 27 25 23 20 18 15 15 12 11 10 10 8 7 5 5 4 4 5 4 5 8 9 7 6 9 5 3 1 1 2 6 4 4 6 8
16 16 21 22 26 32 34 31 29 26 24 21 20 19 18 16 13 12 11 9 8 9 6 4 5 4 5 5 6 7 7 7 5 6 8 4 2 2 2 2 3 3 3
19 18 24 28 28 27 35 33 29 28 25 23 20 20 18 15 12 13 13 11 10 9 7 6 6 5 4 5 4 5 6 6 5 2 2 1 3 3 2 2 5 5 5
18 20 27 22 22 23 30 32 31 28 26 24 21 20 20 18 15 15 15 13 12 10 10 9 7 5 4 4 4 3 4 4 4 5 5 3 2 1 2 2 2 5 8
15 14 14 20 22 27 31 32 32 31 27 25 22 20 18 17 16 15 15 15 14 13 12 10 11 8 4 6 5 5 4 3 3 2 2 3 4 3 2 2 1 2 4
14 15 21 24 26 29 31 33 35 33 30 28 24 20 18 17 16 15 13 13 14 15 15 13 11 12 9 7 10 7 6 6 6 4 2 3 2 2 2 1 2 1 2
13 15 17 22 25 27 31 37 38 35 32 28 23 20 17 15 14 14 11 11 13 12 14 16 15 13 12 9 8 8 6 6 7 6 4 3 5 3 2 2 2 2 1
13 15 19 22 26 31 39 36 37 38 34 28 24 20 18 15 13 12 11 11 10 12 12 12 16 15 15 12 12 11 9 8 6 6 5 7 5 4 3 4 4 5 5
17 16 21 26 30 29 31 37 35 36 34 30 25 21 17 15 11 10 10 10 6 8 10 12 12 16 14 14 14 13 12 12 9 8 7 9 8 8 7 7 7 7 7
17 14 18 20 24 27 28 33 34 35 34 29 25 22 18 15 13 11 9 9 10 9 9 10 11 14 11 12 14 14 14 15 14 13 12 11 9 9 10 10 10 8 8
15 11 14 20 18 20 23 27 32 34 32 28 24 22 21 19 16 13 9 10 12 12 11 9 11 14 13 12 12 14 14 15 16 15 14 12 10 10 10 10 9 9 8
11 9 10 15 17 21 23 26 28 31 29 28 26 25 23 18 16 9 14 11 13 16 16 13 11 12 11 12 13 13 14 16 17 16 16 15 13 10 7 7 9 8 8
12 10 9 10 19 23 23 24 24 20 24 28 29 27 20 13 12 12 13 19 16 15 13 14 15 14 13 12 10 10 11 12 13 14 12 14 11 7 6 7 7 7 7
9 8 7 12 15 15 18 16 15 14 14 18 24 22 15 14 13 17 20 20 21 20 15 9 8 11 11 12 10 11 10 8 9 11 12 10 11 7 7 8 9 9 9
5 7 3 7 14 18 21 18 15 16 18 19 15 15 20 21 13 20 23 26 19 15 13 12 14 12 10 10 9 6 4 4 7 10 12 9 6 6 5 6 5 5 4
6 5 7 8 6 11 17 16 17 20 20 16 15 17 18 17 18 20 20 18 18 17 17 15 10 9 6 6 5 3 5 4 4 5 8 12 7 5 6 5 1 2 3
7 8 9 8 7 7 12 16 13 13 14 17 17 20 19 18 21 24 23 21 16 14 12 9 7 5 3 3 3 5 6 7 9 7 6 7 6 5 4 2 2 5 6
10 10 10 9 10 6 7 12 15 19 15 11 11 13 15 15 19 16 12 9 12 13 13 11 8 5 3 3 2 1 2 4 6 6 5 5 5 5 4 3 3 4 5
12 14 14 13 10 7 9 12 17 11 10 13 8 5 7 17 18 17 14 10 12 14 13 11 8 5 4 4 1 2 3 4 4 4 3 3 3 3 4 3 3 4 7
12 14 17 16 12 11 14 18 20 14 12 13 12 5 6 8 14 13 11 13 15 16 15 12 8 6 5 4 3 1 1 3 4 4 4 5 5 2 2 3 4 7 8
10 16 18 18 16 15 15 19 15 14 14 17 18 14 13 7 9 8 9 10 13 16 14 11 8 6 4 3 4 4 3 1 2 4 5 4 2 2 5 6 9 9 8
11 15 15 17 18 16 17 16 13 15 16 19 19 15 12 10 8 7 6 8 10 10 10 8 7 6 6 4 0 2 3 4 3 3 5 8 7 10 12 12 10 10 8
14 13 12 15 15 15 15 12 12 11 14 15 14 13 12 10 10 8 6 5 6 6 6 6 6 7 8 6 3 3 4 3 1 4 10 12 14 14 14 13 11 10 9
11 10 8 11 11 12 12 10 9 10 11 12 10 8 8 8 8 7 7 5 4 3 2 2 1 2 3 5 5 5 6 4 5 10 12 13 13 13 12 11 11 9 8

GFSMW_925_spd_117.txt.gz
Wind_Speed
18 18 18 17 16 16 17 17 16 16 15 12 9 8 11 8 8 8 7 7 6 4 3 3 3 3 4 5 3 4 4 4 2 3 2 1 1 2 2 4 3 4 4
14 18 20 20 19 19 19 18 18 18 20 16 15 11 12 8 8 8 8 8 7 4 2 3 5 3 2 3 3 2 1 3 2 1 1 0 2 1 1 4 5 7 8
18 17 21 22 20 20 20 18 19 19 21 18 15 14 13 11 9 10 9 8 8 5 3 3 4 4 3 1 2 2 2 2 4 2 0 2 1 1 1 2 3 4 4
19 17 22 23 24 22 20 20 18 19 21 20 14 16 15 13 12 11 11 10 9 7 5 5 4 5 5 4 2 1 1 2 2 2 3 3 1 1 1 2 2 3 3
20 20 26 28 26 22 22 22 21 20 19 21 17 15 16 13 12 12 12 11 10 10 8 7 7 6 5 6 4 2 1 1 2 1 2 0 2 2 3 4 3 4 5
22 23 28 24 23 21 22 23 23 24 22 21 20 18 17 15 12 13 11 11 9 10 11 9 8 7 6 7 6 5 3 1 2 3 1 0 2 2 1 2 3 6 4
22 20 19 25 25 25 25 24 24 24 23 21 19 18 17 16 15 12 13 12 13 13 13 11 12 11 8 8 9 7 7 4 3 2 1 1 1 2 1 2 1 3 4
21 21 25 27 28 27 25 24 25 25 23 21 21 20 18 13 12 11 9 9 10 11 13 14 12 13 12 8 9 7 6 7 5 5 3 3 2 1 2 2 2 3 2
21 22 26 26 28 27 26 27 26 25 23 22 20 19 18 16 12 13 12 9 11 9 13 15 15 13 12 11 8 8 9 7 7 7 6 5 5 5 4 4 3 5 5
18 19 23 27 27 27 26 24 25 27 26 23 21 19 16 16 14 12 12 11 10 10 10 11 13 13 13 13 12 10 10 9 8 7 8 8 7 7 6 7 6 6 8
16 16 19 23 27 25 24 24 23 23 24 24 21 19 17 16 15 12 11 10 10 6 9 9 11 13 14 15 14 13 12 12 10 9 9 9 10 10 9 8 9 9 8
14 13 17 19 22 26 24 23 22 22 23 22 22 23 19 16 15 13 10 8 7 6 6 7 10 11 13 14 14 13 13 14 15 15 13 13 11 13 12 11 11 10 9
12 10 12 16 20 24 23 22 22 23 21 20 21 22 22 20 16 14 12 9 7 7 7 8 9 10 11 10 11 13 14 15 16 15 14 13 12 15 13 13 12 10 9
15 13 13 14 19 19 19 19 21 26 23 21 21 21 22 20 18 16 14 11 7 5 7 9 9 9 9 11 12 14 14 14 15 18 16 14 13 14 11 12 11 11 12
17 17 16 15 17 18 16 14 18 25 20 23 21 23 26 24 20 18 13 8 12 6 4 4 8 11 11 12 12 10 10 11 11 12 15 11 16 18 11 8 9 10 10
12 12 10 13 15 19 14 13 13 17 23 19 20 24 25 22 20 17 15 13 11 9 6 7 8 5 8 14 14 13 12 11 9 8 6 7 6 7 8 8 7 8 11
9 9 10 9 11 13 18 13 11 12 13 10 9 16 23 25 19 13 13 14 12 14 14 10 10 10 9 11 10 10 9 8 8 7 8 8 5 4 5 4 4 5 5
7 7 10 10 10 13 19 18 19 17 12 12 14 17 21 17 20 19 15 15 12 12 10 12 13 13 13 14 10 7 6 5 3 2 5 8 7 7 7 6 3 2 3
8 8 6 9 10 10 12 20 19 20 16 19 19 19 23 22 18 15 16 13 10 13 15 16 13 11 9 9 6 7 7 9 8 7 8 9 10 9 6 4 4 3 3
10 9 10 11 9 4 8 12 17 14 14 15 14 15 18 18 16 15 16 12 15 17 16 14 11 8 5 5 3 2 2 2 2 3 3 5 5 6 5 4 5 7 7
10 9 11 13 10 7 8 8 10 9 11 10 9 5 0 7 11 10 10 12 13 15 13 13 11 9 5 4 1 1 2 3 2 2 2 3 4 5 6 6 6 6 7
10 10 12 13 14 12 15 17 16 9 8 8 7 9 9 11 10 9 8 10 14 18 16 12 10 8 7 5 3 1 1 3 2 3 4 6 5 5 5 5 5 6 8
10 10 12 15 15 18 20 21 15 13 12 12 12 14 16 13 14 9 7 10 13 16 13 9 9 9 7 6 4 2 2 0 1 4 5 5 3 3 5 5 6 7 7
10 10 12 15 16 16 19 20 18 18 19 19 17 17 17 16 10 9 3 8 8 9 10 10 7 5 4 3 2 1 2 3 3 3 2 3 3 5 8 7 6 6 5
8 9 12 16 15 13 15 16 14 14 16 16 17 18 17 17 12 8 7 9 7 7 6 5 3 3 4 4 3 1 3 4 4 1 4 4 5 6 8 9 5 7 6
9 11 12 13 12 13 14 16 14 11 13 13 11 12 12 12 10 10 11 9 8 6 5 4 2 1 2 3 5 4 4 5 4 3 5 6 7 7 7 7 6 4 5

GFSMW_925_spd_123.txt.gz
Wind_Speed
19 20 17 17 18 18 19 18 17 15 14 14 12 13 10 9 8 11 8 7 6 5 5 6 4 2 3 7 5 5 6 5 2 3 6 7 8 10 9 9 8 8 7
17 21 19 20 20 20 20 19 17 16 14 13 9 5 10 9 11 8 9 7 7 5 5 2 5 5 5 3 2 5 11 3 2 14 6 7 11 17 15 11 7 6 6
20 19 20 22 21 21 21 21 19 18 15 10 11 4 3 5 6 10 9 9 8 6 4 5 5 1 5 10 1 5 7 7 6 7 10 6 4 13 13 10 9 3 8
21 19 21 21 22 23 21 22 20 20 17 14 15 11 9 12 11 11 7 9 8 8 7 5 5 5 6 3 2 3 9 12 12 4 8 6 3 8 4 12 37 10 10
18 20 22 23 23 23 22 23 22 20 18 18 12 14 14 10 11 8 10 5 8 7 8 7 5 5 5 5 5 3 5 6 9 11 10 6 13 11 11 5 18 30 10
22 18 27 27 21 24 22 22 23 21 19 18 16 17 14 8 5 10 8 11 11 11 10 8 7 6 6 5 6 5 5 6 6 9 7 12 13 14 14 10 12 8 8
23 21 18 25 24 24 24 22 22 22 21 19 20 16 13 11 8 8 11 7 8 11 17 12 8 9 8 6 6 6 7 5 7 6 11 9 9 8 11 11 13 10 12
23 23 19 24 28 22 24 22 23 22 23 21 19 17 14 14 13 12 10 11 12 9 6 7 10 10 9 9 8 9 8 11 9 9 9 12 15 8 10 11 14 9 16
20 19 20 28 29 26 24 24 23 23 23 23 20 18 16 15 13 9 13 11 11 10 10 12 12 13 12 13 11 11 10 9 7 9 10 10 12 16 9 11 10 10 8
19 17 16 25 27 26 26 24 24 24 24 23 22 20 19 17 15 13 10 11 13 12 9 11 13 14 14 13 13 13 15 11 12 13 11 10 12 14 10 12 12 12 12
14 18 11 23 29 27 26 25 24 23 23 23 22 20 20 19 17 16 13 13 11 11 12 13 14 14 14 15 14 16 14 9 10 12 11 7 10 12 14 14 13 12 12
13 10 11 22 25 29 27 27 25 24 22 22 20 21 18 18 18 16 15 12 13 13 13 12 12 11 12 13 14 15 16 13 14 13 14 13 13 12 10 13 13 13 13
9 8 5 9 19 27 27 28 26 24 23 22 22 20 19 18 16 15 14 14 12 11 11 10 11 12 10 11 12 12 13 13 14 14 14 15 15 14 14 12 11 12 6
6 2 5 8 4 17 23 22 25 24 22 22 22 21 20 19 18 16 15 15 13 12 12 11 11 10 10 10 11 12 12 12 13 13 11 13 15 15 12 13 11 11 9
14 9 8 7 8 5 13 11 16 23 22 21 21 21 20 18 17 14 15 15 15 14 13 13 13 12 11 12 12 10 11 11 11 10 10 12 15 17 18 14 14 14 11
15 16 17 16 17 15 17 18 13 10 14 16 16 17 18 15 15 15 15 15 15 15 13 12 10 10 11 10 10 10 9 10 10 9 9 9 10 10 11 10 13 9 8
5 9 14 16 20 19 19 18 16 14 11 13 16 13 12 14 15 17 18 18 17 15 13 11 12 9 9 8 7 7 5 9 8 8 8 8 7 4 2 6 6 6 6
14 11 6 10 17 17 19 17 15 14 11 12 13 11 9 9 10 14 16 16 14 15 13 13 13 10 11 9 9 7 5 5 4 5 2 3 4 6 3 3 3 2 5
9 10 10 7 15 17 19 19 13 9 9 10 9 7 4 5 6 8 15 15 12 10 11 13 13 12 9 7 5 4 5 5 7 7 7 3 3 6 7 8 6 4 3
11 11 11 7 7 10 18 17 15 12 12 9 6 3 0 4 5 10 13 14 16 16 18 18 14 10 6 5 3 3 3 7 3 4 4 3 8 9 8 6 7 6 6
12 9 11 9 8 2 9 17 14 14 13 12 8 2 3 0 7 10 12 7 3 8 10 10 12 10 9 8 5 3 2 6 5 4 1 3 3 2 4 6 5 6 4
12 10 10 10 13 9 11 16 14 13 16 12 10 11 10 10 9 5 8 11 10 8 9 11 9 8 7 7 6 4 4 6 6 6 3 4 8 6 6 7 8 8 9
15 14 13 18 20 15 15 18 12 12 17 18 14 11 13 12 12 12 14 14 12 10 12 10 11 7 6 7 9 9 6 3 2 2 5 7 6 4 4 7 6 4 4
13 15 17 18 17 22 22 19 14 12 15 18 17 15 17 16 11 11 12 11 8 8 7 9 11 5 4 4 3 0 2 3 3 7 5 4 3 3 2 2 2 2 2
12 14 16 16 15 15 17 19 21 22 24 21 19 16 15 14 14 13 11 10 10 8 8 6 6 6 3 3 5 4 2 3 3 3 5 4 4 5 4 4 3 3 4
14 14 16 16 15 15 15 15 13 12 15 16 14 13 14 12 13 16 15 13 12 11 10 7 4 3 3 3 3 4 5 6 6 6 9 11 9 8 8 7 6 7 6